Regional Weather Roundup
Issued by NWS

Home | Current Version | Previous Version | Graphics & Text | Print | Product List | Glossary On
Versions: 1 2 3 4 5 6 7 8 9 10 11 12 13 14 15 16 17 18 19 20 21 22 23 24 25 26 27 28 29 30 31 32 33 34 35 36 37 38 39 40 41 42 43 44 45 46 47 48 49 50
000
ASUS43 KFSD 232302
RWRSD

WEATHER ROUNDUP FOR SOUTH DAKOTA
NATIONAL WEATHER SERVICE SIOUX FALLS SD
600 PM CDT SAT MAY 23 2015

NOTE: "FAIR" INDICATES FEW OR NO CLOUDS BELOW 12,000 FEET WITH NO
SIGNIFICANT WEATHER AND/OR OBSTRUCTIONS TO VISIBILITY.


SDZ001>005-009-010-012>017-240000-
NORTHWEST AND NORTH CENTRAL SOUTH DAKOTA

CITY           SKY/WX    TMP DP  RH WIND       PRES   REMARKS
FAITH            N/A     58  47  66 E10       30.05F
MOBRIDGE       CLOUDY    61  52  72 SE14      30.07F
$$

SDZ012>016-024>037-041>051-057-063-072>074-240000-
SOUTHWEST AND SOUTH CENTRAL SOUTH DAKOTA

CITY           SKY/WX    TMP DP  RH WIND       PRES   REMARKS
RAPID CTY ARPT CLOUDY    58  50  75 E14       30.02S
PIERRE         CLOUDY    60  53  77 SE13      30.04S
CUSTER         CLOUDY    48  45  89 NE9       30.04F
ELLSWORTH AFB  CLOUDY    58  50  77 E9        30.02S
PHILIP         CLOUDY    60  53  77 E17       30.03R
PINE RIDGE     CLOUDY    57  51  80 E15       29.98S
WINNER         CLOUDY    61  53  75 SE13      30.04F
$$

SDZ004>011-016>023-039-040-240000-
NORTHEAST SOUTH DAKOTA

CITY           SKY/WX    TMP DP  RH WIND       PRES   REMARKS
ABERDEEN       CLOUDY    67  48  50 SE7       30.10F
WATERTOWN      CLOUDY    65  49  56 SE8       30.11F
BROOKINGS      CLOUDY    66  50  55 SE8       30.10F
$$

SDZ017-020-022-023-036>040-048>070-240000-
SOUTHEAST SOUTH DAKOTA

CITY           SKY/WX    TMP DP  RH WIND       PRES   REMARKS
SIOUX FALLS    CLOUDY    66  52  60 S8        30.08F
HURON          CLOUDY    64  52  64 S9        30.08F
CHAMBERLAIN    CLOUDY    61  55  79 SE12      30.05F
MITCHELL       CLOUDY    64  54  69 SE12      30.08F
YANKTON        CLOUDY    63  54  72 SE12      30.07F
$$

ABBREVIATIONS USED IN REMARKS
   TC - TEMPERATURE IN CELSIUS
  WCI - WIND CHILL INDEX
   HX - HEAT INDEX
  VSB - VISIBILITY



USA.gov is the U.S. government's official web portal to all federal, state and local government web resources and services.